FW2726 Weather Reports


Display with metric or nautical units.
time (UTC)temp
F
wind
direction
speed
MPH
gust
MPH
rain 1hr
in
rain 24hr
in
rain mn
in
humidity
%
barometer
mb
20260831131606 56 4 17.0 31.0 0.04 1.26 0.58 97 1000.9
20260831130141 56 349 18.0 29.0 0.04 1.25 0.58 97 1000.6
20260831124604 56 354 15.0 30.0 0.04 1.24 0.57 97 1000.3
20260831123109 56 354 19.0 32.0 0.03 1.23 0.56 97 1000.0
20260831121607 56 354 18.0 29.0 0.03 1.22 0.55 97 999.6
20260831120147 57 22 18.0 30.0 0.04 1.21 0.54 97 999.5
20260831114609 57 14 17.0 28.0 0.03 1.21 0.52 97 999.2
20260831113109 57 10 17.0 26.0 0.04 1.21 0.52 97 999.1
20260831111606 57 332 16.0 29.0 0.04 1.20 0.52 97 999.0
20260831110112 57 349 15.0 27.0 0.04 1.17 0.50 97 998.8
20260831104607 57 4 15.0 26.0 0.06 1.17 0.50 97 998.6
20260831103106 57 21 15.0 24.0 0.08 1.16 0.49 97 998.5
20260831101624 57 341 15.0 26.0 0.10 1.16 0.48 97 998.4
20260831100108 57 17 15.0 26.0 0.10 1.14 0.46 97 998.5
20260831094610 57 334 13.0 30.0 0.10 1.12 0.44 97 998.4
20260831093115 57 4 15.0 22.0 0.08 1.09 0.41 97 998.4
20260831091606 57 344 14.0 25.0 0.05 1.05 0.38 97 998.3
20260831090124 57 12 15.0 26.0 0.04 1.04 0.36 97 998.2
20260831084606 56 346 14.0 26.0 0.02 1.03 0.34 97 998.3
20260831083108 56 354 12.0 20.0 0.01 1.02 0.33 97 998.3
20260831081611 56 359 13.0 21.0 0.01 1.02 0.33 97 998.5
20260831080111 56 320 12.0 21.0 0.00 1.01 0.32 97 998.7
20260831074610 56 18 12.0 19.0 0.04 1.16 0.32 97 999.0
20260831073125 56 4 13.0 23.0 0.09 1.16 0.32 97 999.1
20260831071609 57 343 11.0 20.0 0.17 1.16 0.32 97 999.1
20260831070139 54 12 9.0 15.0 0.31 1.16 0.32 97 999.6
20260831064608 52 302 6.0 11.0 0.38 1.13 0.28 96 999.9
20260831063112 52 292 4.0 14.0 0.39 1.08 0.23 96 1000.6
20260831061611 52 262 10.0 17.0 0.42 1.00 0.15 96 1001.0
20260831060113 52 278 9.0 17.0 0.36 0.86 0.01 96 1001.5
20260831054615 53 273 10.0 16.0 0.28 0.75 0.75 96 1001.7
20260831053109 53 258 11.0 18.0 0.24 0.69 0.69 95 1001.8
20260831051626 53 258 12.0 22.0 0.15 0.58 0.58 95 1002.2
20260831050112 53 262 10.0 20.0 0.11 0.50 0.50 95 1002.6
20260831044609 53 286 8.0 16.0 0.10 0.47 0.47 94 1002.7
20260831043105 53 281 7.0 15.0 0.09 0.45 0.45 94 1002.9
20260831041616 53 287 9.0 15.0 0.07 0.43 0.43 93 1003.3
20260831040107 53 289 9.0 18.0 0.03 0.38 0.38 92 1003.4
20260831034606 54 290 11.0 18.0 0.03 0.37 0.37 92 1003.4
20260831033108 54 305 9.0 15.0 0.03 0.36 0.36 92 1004.1
20260831031608 55 302 10.0 18.0 0.06 0.36 0.36 93 1004.4
20260831030107 56 297 8.0 14.0 0.09 0.35 0.35 93 1004.6
20260831024619 57 322 7.0 11.0 0.10 0.34 0.34 93 1004.6
20260831023110 58 307 3.0 9.0 0.10 0.33 0.33 94 1005.0
20260831021610 59 339 5.0 9.0 0.07 0.30 0.30 94 1004.8
20260831020109 60 305 4.0 7.0 0.03 0.26 0.26 94 1005.0
20260831014612 60 295 2.0 5.0 0.01 0.24 0.24 94 1004.9
20260831013111 60 297 2.0 4.0 0.00 0.23 0.23 94 1004.7
20260831011609 60 297 1.0 3.0 0.00 0.23 0.23 93 1004.8
20260831010134 60 297 1.0 4.0 0.01 0.23 0.23 93 1004.9
20260831004615 60 0 0.0 0.0 0.01 0.23 0.23 93 1005.1
20260831003112 60 0 0.0 0.0 0.01 0.23 0.23 93 1005.1
20260831001611 60 0 0.0 0.0 0.01 0.23 0.23 93 1005.4
20260831000109 60 0 0.0 0.0 0.00 0.22 0.22 92 1005.4
20260830234607 60 0 0.0 0.0 0.00 0.22 0.22 92 1005.6
20260830233104 60 217 0.0 3.0 0.00 0.22 0.22 92 1005.7
20260830231608 60 217 0.0 3.0 0.00 0.22 0.22 92 1005.8
20260830230114 60 217 2.0 4.0 0.00 0.22 0.22 92 1005.8
20260830224611 61 217 1.0 7.0 0.00 0.22 0.22 92 1006.0
20260830223105 61 219 3.0 6.0 0.00 0.22 0.22 92 1006.0
20260830221604 62 185 3.0 6.0 0.00 0.22 0.22 92 1006.1
20260830220129 62 199 4.0 7.0 0.01 0.22 0.22 93 1006.2
20260830214608 61 198 5.0 8.0 0.01 0.22 0.22 93 1006.3
20260830213108 62 184 4.0 7.0 0.01 0.22 0.22 94 1006.5
20260830211606 62 193 6.0 9.0 0.01 0.22 0.22 94 1006.6
20260830210108 62 189 5.0 11.0 0.01 0.21 0.21 94 1006.6
20260830204607 61 181 5.0 8.0 0.01 0.21 0.21 95 1006.5
20260830203124 61 161 6.0 12.0 0.01 0.21 0.21 94 1006.7
20260830201607 61 168 5.0 9.0 0.01 0.21 0.21 95 1006.7
20260830200106 61 153 5.0 9.0 0.00 0.20 0.20 95 1006.7
20260830194608 60 139 4.0 7.0 0.00 0.20 0.20 95 1006.9
20260830193110 60 166 5.0 10.0 0.00 0.20 0.20 95 1006.9
20260830191607 61 152 5.0 11.0 0.00 0.20 0.20 95 1007.0
20260830190107 61 110 6.0 10.0 0.00 0.20 0.20 96 1006.8
20260830184605 61 126 5.0 8.0 0.00 0.20 0.20 96 1006.8
20260830183124 60 168 5.0 10.0 0.00 0.20 0.20 96 1006.8
20260830181628 60 188 5.0 11.0 0.00 0.20 0.20 96 1007.0
20260830180115 59 170 6.0 8.0 0.00 0.20 0.20 96 1007.0
20260830174607 59 193 5.0 8.0 0.00 0.20 0.20 96 1006.9
20260830173150 59 164 3.0 5.0 0.00 0.20 0.20 96 1006.9
20260830171619 58 198 1.0 5.0 0.00 0.20 0.20 96 1006.9
20260830170114 58 207 2.0 7.0 0.00 0.20 0.20 96 1006.8
20260830164611 58 206 3.0 8.0 0.01 0.20 0.20 96 1007.0
20260830163127 58 233 2.0 12.0 0.01 0.20 0.20 95 1007.0
20260830161636 59 247 7.0 11.0 0.01 0.20 0.20 96 1007.2
20260830160128 59 141 3.0 7.0 0.02 0.20 0.20 96 1006.5
20260830154618 59 152 2.0 4.0 0.01 0.19 0.19 96 1006.7
20260830153128 58 125 4.0 7.0 0.01 0.19 0.19 96 1007.0
20260830151629 57 0 0.0 3.0 0.01 0.19 0.19 95 1007.0
20260830150134 57 0 0.0 5.0 0.00 0.18 0.18 95 1007.2
20260830144631 57 190 2.0 6.0 0.00 0.18 0.18 95 1007.5
20260830143107 56 217 1.0 5.0 0.00 0.18 0.18 95 1007.5
20260830141607 56 0 0.0 0.0 0.00 0.18 0.18 95 1007.2
20260830140112 56 0 0.0 2.0 0.00 0.18 0.18 95 1007.4
20260830134616 56 0 0.0 4.0 0.00 0.18 0.18 95 1007.8
20260830133108 56 0 0.0 0.0 0.00 0.18 0.18 95 1007.8